Regional Weather Roundup
Issued by NWS

Home | Current Version | Previous Version | Text Only | Print | Product List | Glossary Off
Versions: 1 2 3 4 5 6 7 8 9 10 11 12 13 14 15 16 17 18 19 20 21 22 23 24 25 26 27 28 29 30 31 32 33 34 35 36 37 38 39 40 41 42 43 44 45 46 47 48 49 50

000
ASUS43 KFSD 012010
RWRSD

WEATHER ROUNDUP FOR SOUTH DAKOTA
NATIONAL WEATHER SERVICE SIOUX FALLS SD
300 PM CDT MON SEP 01 2014

NOTE: "FAIR" INDICATES FEW OR NO CLOUDS BELOW 12,000 FEET WITH NO
SIGNIFICANT WEATHER AND/OR OBSTRUCTIONS TO VISIBILITY.


SDZ001>005-009-010-012>017-012100-
NORTHWEST AND NORTH CENTRAL SOUTH DAKOTA

CITY           SKY/WX    TMP DP  RH WIND       PRES   REMARKS
BUFFALO          N/A     62  47  57 VRB3      29.86R
FAITH            N/A     75  51  43 NW9       29.87S
MOBRIDGE       SUNNY     74  53  48 NW12      29.80S
$$

SDZ012>016-024>037-041>051-057-063-072>074-012100-
SOUTHWEST AND SOUTH CENTRAL SOUTH DAKOTA

CITY           SKY/WX    TMP DP  RH WIND       PRES   REMARKS
RAPID CTY ARPT TSTM      60  47  61 W14       29.96R
PIERRE         PTSUNNY   75  53  46 N9        29.81F
CUSTER         CLOUDY    56  43  61 NW13G20   30.03R
ELLSWORTH AFB  LGT RAIN  68  45  42 N15       29.94R
PHILIP         MOSUNNY   76  49  38 W12       29.86F
PINE RIDGE     MOSUNNY   75  45  34 W9        29.90F
WINNER         FAIR      78  48  34 VRB3      29.87F
$$

SDZ004>011-016>023-039-040-012100-
NORTHEAST SOUTH DAKOTA

CITY           SKY/WX    TMP DP  RH WIND       PRES   REMARKS
ABERDEEN       MOSUNNY   76  53  44 W9G20     29.79F
WATERTOWN      SUNNY     75  54  47 W12       29.82F
SISSETON         N/A     77  55  46 NW12G20   29.76F
$$

SDZ017-020-022-023-036>040-048>070-012100-
SOUTHEAST SOUTH DAKOTA

CITY           SKY/WX    TMP DP  RH WIND       PRES   REMARKS
SIOUX FALLS    MOSUNNY   76  59  55 NW12      29.85R
HURON          PTSUNNY   76  52  43 SW9       29.82F
CHAMBERLAIN    MOSUNNY   76  52  42 S8        29.85F
MITCHELL       PTSUNNY   77  59  53 W7        29.85F
YANKTON        MOSUNNY   75  61  60 W10       29.85S
$$

ABBREVIATIONS USED IN REMARKS
   TC - TEMPERATURE IN CELSIUS
  WCI - WIND CHILL INDEX
   HX - HEAT INDEX
  VSB - VISIBILITY



USA.gov is the U.S. government's official web portal to all federal, state and local government web resources and services.